,,PA_Meas_PMT16A,,PR_Meas_QMR101_102,,RH_Meas_QMH101,,SR_Meas_QMS101,,TA_Meas_QMH101,,GenWind,,GenWind,
time,status,PA,status,PR,status,RH,status,SR,status,TA,status,DirAvg,status,SpdAvg,
2016-11-22, 14:33:04,VALID,917.041,VALID,0,INVALID,123.461,VALID,170.724,VALID,20.3089,VALID,239,VALID,1.07695,
2016-11-22, 14:34:04,VALID,917.027,VALID,0,INVALID,123.446,VALID,161.591,VALID,20.4064,VALID,6,VALID,0.238672,
2016-11-22, 14:41:04,VALID,917.081,VALID,0,INVALID,122.493,VALID,147.946,VALID,20.7966,VALID,7,VALID,0,
2016-11-22, 14:42:04,VALID,917.097,VALID,0,INVALID,122.264,VALID,207.899,VALID,20.8746,VALID,349,VALID,0.474609,
2016-11-22, 14:43:04,VALID,917.122,VALID,0,INVALID,121.959,VALID,228.742,VALID,20.9316,VALID,12,VALID,0.803516,
2016-11-22, 14:44:04,VALID,917.135,VALID,0,INVALID,121.357,VALID,236.908,VALID,21.0307,VALID,12,VALID,1.23086,
2016-11-22, 14:45:04,VALID,917.122,VALID,0,INVALID,121.174,VALID,251.09,VALID,21.0892,VALID,9,VALID,0.690234,
2016-11-22, 14:46:04,VALID,917.16,VALID,0,INVALID,120.923,VALID,259.578,VALID,21.1673,VALID,2,VALID,1.125,
2016-11-22, 14:47:04,VALID,917.197,VALID,0,INVALID,119.413,VALID,267.099,VALID,21.2437,VALID,352,VALID,0.732031,
2016-11-22, 14:48:04,VALID,917.22,VALID,0,VALID,104,VALID,277.628,VALID,21.3608,VALID,359,VALID,0.908984,
2016-11-22, 14:49:04,VALID,917.242,VALID,0,VALID,102.825,VALID,281.281,VALID,21.5559,VALID,355,VALID,0.853125,
2016-11-22, 14:50:04,VALID,917.315,VALID,0,VALID,96.0093,VALID,279.454,VALID,21.6924,VALID,349,VALID,0.375781,
2016-11-22, 14:51:04,VALID,917.273,VALID,0,VALID,93.9357,VALID,237.23,VALID,21.8485,VALID,349,VALID,0.250781,
2016-11-22, 14:52:04,VALID,917.297,VALID,0,VALID,96.5429,VALID,264.95,VALID,22.0437,VALID,349,VALID,0.31875,
2016-11-22, 14:53:04,VALID,917.334,VALID,0,VALID,94.4694,VALID,232.61,VALID,22.1396,VALID,322,VALID,0.671484,
2016-11-22, 14:54:04,VALID,917.335,VALID,0,VALID,89.7733,VALID,262.479,VALID,22.1981,VALID,337,VALID,0.561328,
2016-11-22, 14:55:04,VALID,917.342,VALID,0,VALID,87.5397,VALID,237.982,VALID,22.2762,VALID,337,VALID,0.523438,
2016-11-22, 14:56:04,VALID,917.33,VALID,0,VALID,87.4177,VALID,225.626,VALID,22.3771,VALID,356,VALID,0.996484,
2016-11-22, 14:57:04,VALID,917.384,VALID,0,VALID,88.6832,VALID,244.751,VALID,22.3559,VALID,13,VALID,0.115234,
2016-11-22, 14:58:04,VALID,917.372,VALID,0,VALID,88.9119,VALID,213.163,VALID,22.3771,VALID,317,VALID,0.527734,
2016-11-22, 14:59:04,VALID,917.423,VALID,0,VALID,86.7773,VALID,213.378,VALID,22.2583,VALID,311,VALID,1.09687,
2016-11-22, 15:00:04,VALID,917.444,VALID,0,VALID,86.6401,VALID,201.774,VALID,22.1413,VALID,295,VALID,0.542578,
2016-11-22, 15:01:04,VALID,917.452,VALID,0,VALID,87.0518,VALID,195.973,VALID,22.1217,VALID,29,VALID,1.21992,
2016-11-22, 15:02:04,VALID,917.477,VALID,0,VALID,91.7783,VALID,192.857,VALID,22.1217,VALID,329,VALID,1.175,
2016-11-22, 15:03:04,VALID,917.491,VALID,0,VALID,89.5828,VALID,214.882,VALID,22.1413,VALID,357,VALID,1.43984,
2016-11-22, 15:04:04,VALID,917.498,VALID,0,VALID,89.8877,VALID,192.32,VALID,22.1022,VALID,293,VALID,0,
2016-11-22, 15:05:04,VALID,917.507,VALID,0,VALID,91.3361,VALID,200.808,VALID,22.1998,VALID,293,VALID,0,
2016-11-22, 15:06:04,VALID,917.559,VALID,0,VALID,90.4213,VALID,202.956,VALID,22.2388,VALID,293,VALID,0,
2016-11-22, 15:07:04,VALID,917.594,VALID,0,VALID,85.954,VALID,190.815,VALID,22.2193,VALID,257,VALID,1.11328,
2016-11-22, 15:08:04,VALID,917.567,VALID,0,VALID,86.8917,VALID,184.906,VALID,22.1608,VALID,285,VALID,0.84375,
2016-11-22, 15:09:04,VALID,917.603,VALID,0,VALID,87.9132,VALID,191.89,VALID,22.0615,VALID,297,VALID,0.795703,
2016-11-22, 15:10:04,VALID,917.615,VALID,0,VALID,88.4316,VALID,200.808,VALID,21.9835,VALID,294,VALID,0.763281,
2016-11-22, 15:11:04,VALID,917.683,VALID,0,VALID,94.8277,VALID,218.106,VALID,21.9249,VALID,293,VALID,0.442969,
2016-11-22, 15:12:04,VALID,917.674,VALID,0,VALID,89.6895,VALID,252.379,VALID,21.8859,VALID,252,VALID,0.647266,
2016-11-22, 15:13:04,VALID,917.685,VALID,0,VALID,92.3119,VALID,399.036,VALID,21.9444,VALID,253,VALID,0.225781,
2016-11-22, 15:14:04,VALID,917.661,VALID,0,VALID,98.6546,VALID,385.714,VALID,22.081,VALID,252,VALID,0.105078,
2016-11-22, 15:15:04,VALID,917.667,VALID,0,VALID,92.2205,VALID,375.507,VALID,22.2762,VALID,257,VALID,0.417969,
2016-11-22, 15:16:04,VALID,917.67,VALID,0,VALID,87.1966,VALID,388.4,VALID,22.3542,VALID,282,VALID,0.0890625,
2016-11-22, 15:17:04,VALID,917.691,VALID,0,VALID,86.4572,VALID,381.094,VALID,22.5494,VALID,283,VALID,0,
2016-11-22, 15:18:04,VALID,917.708,VALID,0,VALID,84.8715,VALID,379.482,VALID,22.7038,VALID,250,VALID,0.567578,
2016-11-22, 15:19:04,VALID,917.72,VALID,0,VALID,84.8715,VALID,383.78,VALID,22.6843,VALID,264,VALID,0.762109,
2016-11-22, 15:20:04,VALID,917.739,VALID,0,VALID,85.2145,VALID,372.391,VALID,22.8226,VALID,250,VALID,0.578906,
2016-11-22, 15:21:04,VALID,917.751,VALID,0,VALID,84.0863,VALID,358.424,VALID,22.9805,VALID,276,VALID,0.4125,
2016-11-22, 15:22:04,VALID,917.775,VALID,0,VALID,83.0419,VALID,338.547,VALID,22.9007,VALID,263,VALID,0.974219,
2016-11-22, 15:23:04,VALID,917.781,VALID,0,VALID,85.6567,VALID,328.662,VALID,22.8616,VALID,312,VALID,0.801953,
2016-11-22, 15:24:04,VALID,917.823,VALID,0,VALID,84.7343,VALID,321.034,VALID,22.8421,VALID,283,VALID,0.0851562,
2016-11-22, 15:25:04,VALID,917.833,VALID,0,VALID,86.0607,VALID,342.522,VALID,22.8812,VALID,36,VALID,0.983203,
2016-11-22, 15:26:04,VALID,917.878,VALID,0,VALID,84.597,VALID,379.804,VALID,22.9787,VALID,277,VALID,0.685938,
2016-11-22, 15:27:04,VALID,917.86,VALID,0,VALID,82.8055,VALID,380.449,VALID,22.9983,VALID,295,VALID,1.59961,
2016-11-22, 15:28:04,VALID,917.88,VALID,0,VALID,85.9007,VALID,279.777,VALID,23.0373,VALID,12,VALID,0.58125,
2016-11-22, 15:29:04,VALID,917.894,VALID,0,VALID,84.6809,VALID,254.743,VALID,23.1722,VALID,8,VALID,0.18125,
2016-11-22, 15:30:04,VALID,917.879,VALID,0,VALID,82.5387,VALID,277.413,VALID,23.252,VALID,26,VALID,1.31992,
2016-11-22, 15:31:04,VALID,917.863,VALID,0,VALID,82.9199,VALID,281.496,VALID,23.3106,VALID,352,VALID,1.72031,
2016-11-22, 15:32:04,VALID,917.912,VALID,0,VALID,82.7446,VALID,246.685,VALID,23.252,VALID,350,VALID,1.70234,
2016-11-22, 15:33:04,VALID,917.971,VALID,0,VALID,85.0773,VALID,237.445,VALID,23.1527,VALID,21,VALID,1.49336,
2016-11-22, 15:34:04,VALID,917.949,VALID,0,VALID,86.2818,VALID,235.833,VALID,23.1331,VALID,6,VALID,1.47148,
2016-11-22, 15:35:04,VALID,917.984,VALID,0,VALID,84.9325,VALID,235.726,VALID,23.0941,VALID,327,VALID,0.950391,
2016-11-22, 15:36:04,VALID,917.994,VALID,0,VALID,85.9388,VALID,233.362,VALID,23.0746,VALID,23,VALID,1.85586,
2016-11-22, 15:37:04,VALID,917.992,VALID,0,VALID,83.2096,VALID,230.784,VALID,23.0356,VALID,1,VALID,2.77422,
2016-11-22, 15:38:04,VALID,918.012,VALID,0,VALID,92.068,VALID,228.85,VALID,22.9167,VALID,6,VALID,1.18008,
2016-11-22, 15:39:04,VALID,918.001,VALID,0,VALID,84.0253,VALID,228.85,VALID,22.8599,VALID,24,VALID,1.54844,
2016-11-22, 15:40:04,VALID,917.977,VALID,0,VALID,84.1854,VALID,227.345,VALID,22.8209,VALID,354,VALID,1.52383,
2016-11-22, 15:41:04,VALID,918.018,VALID,0,VALID,88.0428,VALID,220.039,VALID,22.7623,VALID,20,VALID,0.862891,
2016-11-22, 15:42:04,VALID,917.981,VALID,0,VALID,94.2026,VALID,228.098,VALID,22.7411,VALID,12,VALID,1.81836,
2016-11-22, 15:43:04,VALID,917.989,VALID,0,VALID,87.3262,VALID,228.312,VALID,22.6825,VALID,359,VALID,1.59648,
2016-11-22, 15:44:04,VALID,917.982,VALID,0,VALID,89.8267,VALID,236.585,VALID,22.6452,VALID,15,VALID,1.67305,
2016-11-22, 15:45:04,VALID,917.963,VALID,0,VALID,90.2917,VALID,242.065,VALID,22.6257,VALID,11,VALID,2.27617,
2016-11-22, 15:46:04,VALID,917.958,VALID,0,VALID,89.011,VALID,259.685,VALID,22.5867,VALID,5,VALID,1.60859,
2016-11-22, 15:47:04,VALID,917.946,VALID,0,VALID,88.2182,VALID,246.685,VALID,22.5867,VALID,344,VALID,1.61484,
2016-11-22, 15:48:04,VALID,917.925,VALID,0,VALID,86.5105,VALID,246.04,VALID,22.5867,VALID,13,VALID,1.14805,
2016-11-22, 15:49:04,VALID,917.962,VALID,0,VALID,86.8231,VALID,264.628,VALID,22.6045,VALID,11,VALID,2.01602,
2016-11-22, 15:50:04,VALID,917.898,VALID,0,VALID,89.2931,VALID,270.215,VALID,22.6435,VALID,8,VALID,1.95508,
2016-11-22, 15:51:04,VALID,917.921,VALID,0,VALID,89.659,VALID,280.421,VALID,22.6825,VALID,40,VALID,2.1875,
2016-11-22, 15:52:04,VALID,917.905,VALID,0,VALID,90.5357,VALID,273.975,VALID,22.7428,VALID,13,VALID,2.62812,
2016-11-22, 15:53:04,VALID,917.924,VALID,0,VALID,86.7011,VALID,285.149,VALID,22.7216,VALID,352,VALID,2.02305,
2016-11-22, 15:54:04,VALID,917.879,VALID,0,VALID,86.3962,VALID,256.355,VALID,22.624,VALID,10,VALID,2.74688,
2016-11-22, 15:55:04,VALID,917.894,VALID,0,VALID,87.6922,VALID,246.577,VALID,22.5867,VALID,356,VALID,1.80547,
2016-11-22, 15:56:04,VALID,917.859,VALID,0,VALID,90.3451,VALID,242.924,VALID,22.5867,VALID,10,VALID,1.90234,
2016-11-22, 15:57:04,VALID,917.875,VALID,0,VALID,91.2066,VALID,245.61,VALID,22.6665,VALID,17,VALID,2.32266,
2016-11-22, 15:58:04,VALID,917.844,VALID,0,VALID,94.7972,VALID,251.95,VALID,22.7233,VALID,20,VALID,1.69805,
2016-11-22, 15:59:04,VALID,917.832,VALID,0,VALID,92.7312,VALID,266.561,VALID,22.7623,VALID,8,VALID,1.60273,
2016-11-22, 16:00:04,VALID,917.795,VALID,0,VALID,86.6477,VALID,295.893,VALID,22.7233,VALID,12,VALID,2.475,
2016-11-22, 16:01:04,VALID,917.848,VALID,0,VALID,86.9603,VALID,329.2,VALID,22.7818,VALID,341,VALID,1.49297,
2016-11-22, 16:02:04,VALID,917.793,VALID,0,VALID,86.1903,VALID,313.513,VALID,22.8014,VALID,9,VALID,2.14922,
2016-11-22, 16:03:04,VALID,917.835,VALID,0,VALID,85.2527,VALID,313.513,VALID,22.8031,VALID,314,VALID,1.13633,
2016-11-22, 16:04:04,VALID,917.818,VALID,0,VALID,87.372,VALID,305.455,VALID,22.7818,VALID,29,VALID,1.89219,
2016-11-22, 16:05:04,VALID,917.811,VALID,0,VALID,94.233,VALID,323.398,VALID,22.8599,VALID,29,VALID,2.68672,
2016-11-22, 16:06:04,VALID,917.829,VALID,0,VALID,89.1177,VALID,420.31,VALID,22.9397,VALID,350,VALID,0.387891,
2016-11-22, 16:07:04,VALID,917.819,VALID,0,VALID,87.1204,VALID,315.77,VALID,22.8794,VALID,31,VALID,2.40977,
2016-11-22, 16:08:04,VALID,917.873,VALID,0,VALID,87.3872,VALID,271.396,VALID,22.8794,VALID,15,VALID,2.28594,
2016-11-22, 16:09:04,VALID,917.833,VALID,0,VALID,89.8343,VALID,267.314,VALID,22.9575,VALID,356,VALID,1.92617,
2016-11-22, 16:10:04,VALID,917.842,VALID,0,VALID,84.6123,VALID,265.165,VALID,22.8989,VALID,353,VALID,1.78164,
2016-11-22, 16:11:04,VALID,917.861,VALID,0,VALID,88.4316,VALID,265.38,VALID,22.8794,VALID,13,VALID,1.81133,
2016-11-22, 16:12:04,VALID,917.841,VALID,0,VALID,88.5002,VALID,266.132,VALID,22.8989,VALID,16,VALID,2.21367,
2016-11-22, 16:13:04,VALID,917.865,VALID,0,VALID,90.8025,VALID,269.033,VALID,22.9397,VALID,27,VALID,0.755859,
2016-11-22, 16:14:04,VALID,917.884,VALID,0,VALID,96.5658,VALID,276.446,VALID,22.9965,VALID,10,VALID,1.74922,
2016-11-22, 16:15:04,VALID,917.876,VALID,0,VALID,91.9231,VALID,286.975,VALID,23.016,VALID,2,VALID,1.63359,
2016-11-22, 16:16:04,VALID,917.87,VALID,0,VALID,87.5168,VALID,297.182,VALID,23.016,VALID,346,VALID,1.56797,
2016-11-22, 16:17:04,VALID,917.875,VALID,0,VALID,91.2828,VALID,308.786,VALID,23.0356,VALID,8,VALID,1.53437,
2016-11-22, 16:18:04,VALID,917.847,VALID,0,VALID,87.593,VALID,329.307,VALID,23.0941,VALID,12,VALID,1.49727,
2016-11-22, 16:19:04,VALID,917.836,VALID,0,VALID,83.0114,VALID,452.65,VALID,23.0746,VALID,301,VALID,1.18906,
2016-11-22, 16:20:04,VALID,917.81,VALID,0,VALID,84.4141,VALID,431.054,VALID,23.0746,VALID,319,VALID,0,
2016-11-22, 16:21:04,VALID,917.828,VALID,0,VALID,85.4128,VALID,344.886,VALID,23.1509,VALID,29,VALID,1.02656,
2016-11-22, 16:22:04,VALID,917.835,VALID,0,VALID,89.0186,VALID,346.713,VALID,23.3674,VALID,19,VALID,0,
2016-11-22, 16:23:04,VALID,917.82,VALID,0,VALID,83.5603,VALID,352.407,VALID,23.4437,VALID,9,VALID,2.45039,
2016-11-22, 16:24:04,VALID,917.836,VALID,0,VALID,84.2769,VALID,400.433,VALID,23.3088,VALID,13,VALID,1.78516,
2016-11-22, 16:25:04,VALID,917.821,VALID,0,VALID,86.0684,VALID,385.177,VALID,23.3088,VALID,33,VALID,1.39375,
2016-11-22, 16:26:04,VALID,917.809,VALID,0,VALID,84.7343,VALID,373.465,VALID,23.3869,VALID,318,VALID,0.721875,
2016-11-22, 16:27:04,VALID,917.842,VALID,0,VALID,83.4764,VALID,352.944,VALID,23.3656,VALID,10,VALID,2.43984,
2016-11-22, 16:28:04,VALID,917.85,VALID,0,VALID,87.0289,VALID,353.589,VALID,23.3265,VALID,358,VALID,2.04414,
2016-11-22, 16:29:04,VALID,917.86,VALID,0,VALID,85.2145,VALID,370.779,VALID,23.307,VALID,350,VALID,1.86172,
2016-11-22, 16:30:04,VALID,917.831,VALID,0,VALID,84.3302,VALID,349.613,VALID,23.2875,VALID,14,VALID,1.86641,
2016-11-22, 16:31:04,VALID,917.88,VALID,0,VALID,84.1778,VALID,356.382,VALID,23.307,VALID,307,VALID,1.71445,
2016-11-22, 16:32:04,VALID,917.864,VALID,0,VALID,87.3415,VALID,345.531,VALID,23.3088,VALID,13,VALID,1.25039,
2016-11-22, 16:33:04,VALID,917.857,VALID,0,VALID,87.7608,VALID,332.638,VALID,23.3851,VALID,319,VALID,0.065625,
2016-11-22, 16:34:04,VALID,917.846,VALID,0,VALID,85.9998,VALID,318.885,VALID,23.4632,VALID,8,VALID,0,
2016-11-22, 16:35:04,VALID,917.833,VALID,0,VALID,81.4638,VALID,304.381,VALID,23.5199,VALID,355,VALID,1.74688,
2016-11-22, 16:36:04,VALID,917.844,VALID,0,VALID,80.6176,VALID,295.893,VALID,23.5785,VALID,318,VALID,0,
2016-11-22, 16:37:04,VALID,917.834,VALID,0,VALID,81.5248,VALID,292.133,VALID,23.5998,VALID,4,VALID,0,
2016-11-22, 16:38:04,VALID,917.837,VALID,0,VALID,82.432,VALID,276.554,VALID,23.6779,VALID,359,VALID,1.34297,
2016-11-22, 16:39:04,VALID,917.793,VALID,0,VALID,80.2212,VALID,266.561,VALID,23.834,VALID,5,VALID,1.38242,
2016-11-22, 16:40:04,VALID,917.831,VALID,0,VALID,78.3077,VALID,263.768,VALID,23.9121,VALID,282,VALID,0.0609375,
2016-11-22, 16:41:04,VALID,917.777,VALID,0,VALID,80.7091,VALID,276.554,VALID,23.9298,VALID,35,VALID,1.375,
2016-11-22, 16:42:04,VALID,917.811,VALID,0,VALID,83.2248,VALID,290.736,VALID,24.0469,VALID,12,VALID,0,
2016-11-22, 16:43:04,VALID,917.808,VALID,0,VALID,81.8984,VALID,300.835,VALID,24.2421,VALID,307,VALID,0,
2016-11-22, 16:44:04,VALID,917.789,VALID,0,VALID,77.6979,VALID,270.215,VALID,24.3221,VALID,237,VALID,0,
2016-11-22, 16:45:04,VALID,917.765,VALID,0,VALID,78.6965,VALID,317.703,VALID,24.4178,VALID,13,VALID,0,
2016-11-22, 16:46:04,VALID,917.792,VALID,0,VALID,74.9001,VALID,389.797,VALID,24.4959,VALID,305,VALID,0.259766,
2016-11-22, 16:47:04,VALID,917.776,VALID,0,VALID,76.1351,VALID,410.748,VALID,24.416,VALID,28,VALID,0,
2016-11-22, 16:48:04,VALID,917.784,VALID,0,VALID,79.314,VALID,358.531,VALID,24.5564,VALID,351,VALID,0.0308594,
2016-11-22, 16:49:04,VALID,917.779,VALID,0,VALID,78.0333,VALID,545.049,VALID,24.7888,VALID,313,VALID,0,
2016-11-22, 16:50:04,VALID,917.786,VALID,0,VALID,78.9938,VALID,597.373,VALID,25.1226,VALID,11,VALID,0,
2016-11-22, 16:51:04,VALID,917.79,VALID,0,VALID,76.8745,VALID,642.283,VALID,25.3941,VALID,13,VALID,0,
2016-11-22, 16:52:04,VALID,917.802,VALID,0,VALID,74.74,VALID,675.16,VALID,25.5113,VALID,8,VALID,0.314844,
2016-11-22, 16:53:04,VALID,917.81,VALID,0,VALID,73.4364,VALID,516.899,VALID,25.3941,VALID,293,VALID,1.57148,
2016-11-22, 16:54:04,VALID,917.813,VALID,0,VALID,72.2471,VALID,378.3,VALID,25.0817,VALID,286,VALID,0.723047,
2016-11-22, 16:55:04,VALID,917.797,VALID,0,VALID,74.0157,VALID,407.632,VALID,24.6912,VALID,7,VALID,2.64258,
2016-11-22, 16:56:04,VALID,917.806,VALID,0,VALID,78.5136,VALID,360.035,VALID,24.3398,VALID,27,VALID,1.72812,
2016-11-22, 16:57:04,VALID,917.836,VALID,0,VALID,78.5517,VALID,414.508,VALID,24.3788,VALID,353,VALID,0.00195313,
2016-11-22, 16:58:04,VALID,917.835,VALID,0,VALID,76.9584,VALID,338.762,VALID,24.5545,VALID,13,VALID,0,
2016-11-22, 16:59:04,VALID,917.791,VALID,0,VALID,76.623,VALID,282.033,VALID,24.5331,VALID,12,VALID,2.10977,
2016-11-22, 17:00:04,VALID,917.873,VALID,0,VALID,78.8566,VALID,842.016,VALID,24.4374,VALID,23,VALID,0.0292969,
2016-11-22, 17:01:04,VALID,917.784,VALID,0,VALID,77.0422,VALID,592.216,VALID,24.574,VALID,17,VALID,2.83008,
2016-11-22, 17:02:04,VALID,917.832,VALID,0,VALID,76.3028,VALID,446.848,VALID,24.5722,VALID,359,VALID,2.1043,
2016-11-22, 17:03:04,VALID,917.8,VALID,0,VALID,77.4768,VALID,431.591,VALID,24.4941,VALID,1,VALID,1.30508,
2016-11-22, 17:04:04,VALID,917.802,VALID,0,VALID,76.9965,VALID,369.168,VALID,24.5136,VALID,297,VALID,0.746484,
2016-11-22, 17:05:04,VALID,917.788,VALID,0,VALID,76.0359,VALID,873.819,VALID,24.5331,VALID,340,VALID,2.04688,
2016-11-22, 17:06:04,VALID,917.748,VALID,0,VALID,78.4221,VALID,869.736,VALID,24.6112,VALID,26,VALID,2.32539,
2016-11-22, 17:07:04,VALID,917.73,VALID,0,VALID,78.5593,VALID,536.991,VALID,24.7674,VALID,19,VALID,1.36406,
2016-11-22, 17:08:04,VALID,917.79,VALID,0,VALID,77.4234,VALID,261.512,VALID,24.865,VALID,360,VALID,1.19414,
2016-11-22, 17:09:04,VALID,917.777,VALID,0,VALID,76.3866,VALID,414.186,VALID,24.8845,VALID,10,VALID,0.831641,
2016-11-22, 17:10:04,VALID,917.763,VALID,0,VALID,75.6853,VALID,822.999,VALID,24.904,VALID,55,VALID,1.29023,
2016-11-22, 17:11:04,VALID,917.799,VALID,0,VALID,75.8073,VALID,819.131,VALID,25.0602,VALID,317,VALID,0,
2016-11-22, 17:12:04,VALID,917.791,VALID,0,VALID,76.2647,VALID,907.233,VALID,25.4117,VALID,3,VALID,0,
2016-11-22, 17:13:04,VALID,917.798,VALID,0,VALID,74.1835,VALID,416.657,VALID,25.5289,VALID,281,VALID,0,
2016-11-22, 17:14:04,VALID,917.831,VALID,0,VALID,74.9382,VALID,551.603,VALID,25.4098,VALID,307,VALID,0.376953,
2016-11-22, 17:15:04,VALID,917.793,VALID,0,VALID,70.8749,VALID,404.194,VALID,25.3512,VALID,300,VALID,1.12969,
2016-11-22, 17:16:04,VALID,917.782,VALID,0,VALID,72.9561,VALID,586.414,VALID,25.1188,VALID,276,VALID,0.0339844,
2016-11-22, 17:17:04,VALID,917.814,VALID,0,VALID,78.8109,VALID,385.499,VALID,25.0974,VALID,13,VALID,0.966406,
2016-11-22, 17:18:04,VALID,917.796,VALID,0,VALID,72.9713,VALID,1017.47,VALID,25.1755,VALID,290,VALID,0.938672,
2016-11-22, 17:19:04,VALID,917.797,VALID,0,VALID,71.6372,VALID,1056.04,VALID,25.3317,VALID,274,VALID,0,
2016-11-22, 17:20:04,VALID,917.799,VALID,0,VALID,72.1175,VALID,556.223,VALID,25.5269,VALID,11,VALID,0.753906,
2016-11-22, 17:21:04,VALID,917.79,VALID,0,VALID,71.0045,VALID,424.07,VALID,25.566,VALID,288,VALID,0,
2016-11-22, 17:22:04,VALID,917.797,VALID,0,VALID,74.0767,VALID,330.059,VALID,25.6831,VALID,347,VALID,0,
2016-11-22, 17:23:04,VALID,917.795,VALID,0,VALID,73.7108,VALID,317.381,VALID,25.6831,VALID,320,VALID,0.00078125,
2016-11-22, 17:24:04,VALID,917.815,VALID,0,VALID,75.1364,VALID,430.517,VALID,25.7612,VALID,16,VALID,1.43164,
2016-11-22, 17:25:04,VALID,917.778,VALID,0,VALID,74.0691,VALID,1020.91,VALID,25.8784,VALID,29,VALID,0.370703,
2016-11-22, 17:26:04,VALID,917.778,VALID,0,VALID,73.7794,VALID,786.792,VALID,25.9585,VALID,29,VALID,0.251563,
2016-11-22, 17:27:04,VALID,917.763,VALID,0,VALID,76.2799,VALID,1029.18,VALID,26.2319,VALID,21,VALID,0.35625,
2016-11-22, 17:28:04,VALID,917.778,VALID,0,VALID,73.3296,VALID,309.108,VALID,26.4272,VALID,338,VALID,0.0121094,
2016-11-22, 17:29:04,VALID,917.791,VALID,0,VALID,72.1023,VALID,283,VALID,26.3686,VALID,344,VALID,1.15781,
2016-11-22, 17:30:04,VALID,917.758,VALID,0,VALID,73.8709,VALID,288.265,VALID,26.0366,VALID,14,VALID,1.78633,
2016-11-22, 17:31:04,VALID,917.813,VALID,0,VALID,73.8175,VALID,379.482,VALID,25.8413,VALID,6,VALID,0,
2016-11-22, 17:32:04,VALID,917.768,VALID,0,VALID,74.6485,VALID,744.567,VALID,25.7827,VALID,10,VALID,0,
2016-11-22, 17:33:04,VALID,917.799,VALID,0,VALID,74.5799,VALID,344.564,VALID,25.7632,VALID,55,VALID,0.00117188,
2016-11-22, 17:34:04,VALID,917.811,VALID,0,VALID,73.7032,VALID,325.762,VALID,25.8022,VALID,3,VALID,0.0320312,
2016-11-22, 17:35:04,VALID,917.807,VALID,0,VALID,73.2839,VALID,332.423,VALID,25.8003,VALID,2,VALID,0.0675781,
2016-11-22, 17:36:04,VALID,917.874,VALID,0,VALID,74.2444,VALID,299.438,VALID,25.6636,VALID,7,VALID,0.0859375,
2016-11-22, 17:37:04,VALID,917.816,VALID,0,VALID,75.5557,VALID,222.296,VALID,25.3902,VALID,335,VALID,0,
2016-11-22, 17:38:04,VALID,917.872,VALID,0,VALID,76.5391,VALID,172.228,VALID,25.1559,VALID,341,VALID,0.116797,
2016-11-22, 17:39:04,VALID,917.871,VALID,0,VALID,77.8808,VALID,147.194,VALID,25.0602,VALID,282,VALID,0,
2016-11-22, 17:40:04,VALID,917.876,VALID,0,VALID,78.0485,VALID,140.748,VALID,24.9998,VALID,343,VALID,0,
2016-11-22, 17:41:04,VALID,917.933,VALID,0,VALID,78.0485,VALID,144.616,VALID,24.9998,VALID,358,VALID,0,
2016-11-22, 17:42:04,VALID,917.907,VALID,0,VALID,77.5225,VALID,143.756,VALID,24.9821,VALID,358,VALID,0,
2016-11-22, 17:43:04,VALID,917.906,VALID,0,VALID,79.8705,VALID,134.839,VALID,24.9607,VALID,358,VALID,0,
2016-11-22, 17:55:04,VALID,917.976,VALID,0,VALID,86.7697,VALID,117.863,VALID,23.795,VALID,11,VALID,1.13125,
2016-11-22, 17:56:04,VALID,917.909,VALID,0,VALID,99.5999,VALID,125.814,VALID,23.7364,VALID,23,VALID,0,
2016-11-22, 17:57:04,VALID,917.906,VALID,0,VALID,89.8267,VALID,137.202,VALID,23.7151,VALID,24,VALID,0,
2016-11-22, 17:58:04,VALID,917.888,VALID,0,VALID,85.2069,VALID,149.988,VALID,23.5962,VALID,47,VALID,0.513672,
2016-11-22, 17:59:04,VALID,917.888,VALID,0,VALID,87.8751,VALID,157.509,VALID,23.5395,VALID,241,VALID,0,
2016-11-22, 18:00:04,VALID,917.868,VALID,0,VALID,88.7289,VALID,151.599,VALID,23.4614,VALID,249,VALID,0,
2016-11-22, 18:01:04,VALID,917.854,VALID,0,VALID,88.1114,VALID,152.459,VALID,23.3053,VALID,9,VALID,1.0625,
2016-11-22, 18:02:04,VALID,917.802,VALID,0,VALID,89.1863,VALID,160.947,VALID,23.2272,VALID,263,VALID,0.557422,
2016-11-22, 18:03:04,VALID,917.777,VALID,0,VALID,86.3581,VALID,172.443,VALID,23.1296,VALID,195,VALID,0.838672,
2016-11-22, 18:04:04,VALID,917.795,VALID,0,VALID,98.769,VALID,181.468,VALID,23.0516,VALID,286,VALID,0.0140625,
2016-11-22, 18:05:04,VALID,917.779,VALID,0.2,INVALID,110.189,VALID,186.84,VALID,23.0125,VALID,25,VALID,0,
2016-11-22, 18:06:04,VALID,917.737,VALID,0,INVALID,112.102,VALID,188.344,VALID,23.0321,VALID,25,VALID,0,
2016-11-22, 18:07:04,VALID,917.763,VALID,0.2,VALID,104,VALID,185.981,VALID,23.0125,VALID,15,VALID,0,
2016-11-22, 18:08:04,VALID,917.72,VALID,0,INVALID,111.858,VALID,215.527,VALID,23.0338,VALID,94,VALID,0.158984,
2016-11-22, 18:09:04,VALID,917.759,VALID,0,INVALID,112.941,VALID,276.231,VALID,23.0338,VALID,134,VALID,0,
2016-11-22, 18:10:04,VALID,917.747,VALID,0,INVALID,116.532,VALID,321.249,VALID,23.0498,VALID,135,VALID,0,
2016-11-22, 18:11:04,VALID,917.773,VALID,0,INVALID,115.838,VALID,306.744,VALID,23.0303,VALID,190,VALID,0,
2016-11-22, 18:12:04,VALID,917.771,VALID,0,INVALID,116.654,VALID,299.331,VALID,22.9718,VALID,212,VALID,0.149219,
2016-11-22, 18:13:04,VALID,917.789,VALID,0,INVALID,116.135,VALID,301.695,VALID,22.9345,VALID,262,VALID,0.408203,
2016-11-22, 18:14:04,VALID,917.745,VALID,0,INVALID,117.553,VALID,317.381,VALID,22.8759,VALID,222,VALID,0.633203,
2016-11-22, 18:15:04,VALID,917.771,VALID,0,INVALID,117.042,VALID,338.655,VALID,22.7979,VALID,252,VALID,0.523438,
2016-11-22, 18:16:04,VALID,917.754,VALID,0,INVALID,116.73,VALID,344.134,VALID,22.7181,VALID,252,VALID,0,
2016-11-22, 18:17:04,VALID,917.732,VALID,0,INVALID,117.202,VALID,335.861,VALID,22.7198,VALID,255,VALID,0.000390625,
2016-11-22, 18:18:04,VALID,917.696,VALID,0,INVALID,117.385,VALID,319.53,VALID,22.6808,VALID,256,VALID,0,
2016-11-22, 18:19:04,VALID,917.715,VALID,0,INVALID,119.07,VALID,279.025,VALID,22.7003,VALID,255,VALID,0,
2016-11-22, 18:20:04,VALID,917.668,VALID,0,INVALID,117.965,VALID,262.049,VALID,22.6418,VALID,268,VALID,0,
2016-11-22, 18:21:04,VALID,917.649,VALID,0,INVALID,117.69,VALID,271.074,VALID,22.5833,VALID,256,VALID,0,
2016-11-22, 18:22:04,VALID,917.654,VALID,0,INVALID,118.262,VALID,288.265,VALID,22.585,VALID,243,VALID,1.68633,
2016-11-22, 18:23:04,VALID,917.648,VALID,0,INVALID,118.27,VALID,328.662,VALID,22.5247,VALID,203,VALID,1.00039,
2016-11-22, 18:24:04,VALID,917.656,VALID,0,INVALID,119.07,VALID,376.259,VALID,22.5637,VALID,207,VALID,0.229297,
2016-11-22, 18:25:04,VALID,917.632,VALID,0,INVALID,119.192,VALID,405.913,VALID,22.6028,VALID,214,VALID,0,
2016-11-22, 18:26:04,VALID,917.584,VALID,0,INVALID,120.305,VALID,527.106,VALID,22.7801,VALID,211,VALID,0,